• In Schweiz
  • Länderverzeichnis
  • Für 7 Tage
  • Wassertemperatur
  • Satellitenkarten
  • Wetterkarte
  • Widgets
  • user-avatar
    Anmelden

    Stündliche Wetter Seredyntsi

    Heute, 18 September, Dienstag

    Zeit Temperatur Niederschläge Wind Luftdruck Luftfeuchtigkeit
    00:00 +13°C° 0 mm 2 m/S 742 mmHg 77%
    01:00 +13°C° 0 mm 2 m/S 742 mmHg 78%
    02:00 +13°C° 0 mm 1 m/S 741 mmHg 80%
    03:00 +12°C° 0 mm 1 m/S 741 mmHg 80%
    04:00 +12°C° 0 mm 2 m/S 741 mmHg 81%
    05:00 +12°C° 0 mm 2 m/S 741 mmHg 82%
    06:00 +13°C° 0 mm 2 m/S 742 mmHg 79%
    07:00 +14°C° 0 mm 2 m/S 742 mmHg 77%
    08:00 +15°C° 0 mm 2 m/S 742 mmHg 72%
    09:00 +17°C° 0 mm 2 m/S 742 mmHg 67%
    10:00 +19°C° 0 mm 2 m/S 742 mmHg 62%
    11:00 +21°C° 0 mm 2 m/S 742 mmHg 57%
    12:00 +21°C° 0 mm 2 m/S 742 mmHg 55%
    13:00 +23°C° 0 mm 2 m/S 742 mmHg 52%
    14:00 +24°C° 0 mm 2 m/S 742 mmHg 50%
    15:00 +24°C° 0 mm 1 m/S 741 mmHg 53%
    16:00 +23°C° 0 mm 1 m/S 741 mmHg 56%
    17:00 +23°C° 0 mm 1 m/S 741 mmHg 59%
    18:00 +21°C° 0 mm 1 m/S 741 mmHg 63%
    19:00 +20°C° 0 mm 1 m/S 741 mmHg 66%
    20:00 +18°C° 0 mm 1 m/S 741 mmHg 69%
    21:00 +18°C° 0 mm 1 m/S 741 mmHg 71%
    22:00 +16°C° 0 mm 2 m/S 741 mmHg 72%
    23:00 +16°C° 0 mm 2 m/S 741 mmHg 73%

    Morgen, 19 September, Mittwoch

    Zeit Temperatur Niederschläge Wind Luftdruck Luftfeuchtigkeit
    00:00 +15°C° 0 mm 2 m/S 741 mmHg 74%
    01:00 +15°C° 0 mm 2 m/S 741 mmHg 75%
    02:00 +15°C° 0 mm 2 m/S 741 mmHg 75%
    03:00 +14°C° 0 mm 2 m/S 741 mmHg 76%
    04:00 +14°C° 0 mm 2 m/S 741 mmHg 76%
    05:00 +14°C° 0 mm 2 m/S 741 mmHg 76%
    06:00 +15°C° 0 mm 2 m/S 741 mmHg 74%
    07:00 +16°C° 0 mm 2 m/S 741 mmHg 72%
    08:00 +17°C° 0 mm 2 m/S 741 mmHg 70%
    09:00 +19°C° 0 mm 2 m/S 742 mmHg 64%
    10:00 +21°C° 0 mm 2 m/S 742 mmHg 58%
    11:00 +24°C° 0 mm 3 m/S 742 mmHg 53%
    12:00 +25°C° 0 mm 3 m/S 742 mmHg 51%
    13:00 +25°C° 0 mm 3 m/S 742 mmHg 48%
    14:00 +26°C° 0 mm 3 m/S 741 mmHg 46%
    15:00 +26°C° 0 mm 2 m/S 741 mmHg 50%
    16:00 +25°C° 0 mm 2 m/S 741 mmHg 54%
    17:00 +25°C° 0 mm 1 m/S 741 mmHg 57%
    18:00 +23°C° 0 mm 2 m/S 741 mmHg 60%
    19:00 +20°C° 0 mm 2 m/S 741 mmHg 64%
    20:00 +19°C° 0 mm 2 m/S 741 mmHg 67%
    21:00 +18°C° 0 mm 2 m/S 741 mmHg 69%
    22:00 +17°C° 0 mm 2 m/S 741 mmHg 70%
    23:00 +17°C° 0 mm 2 m/S 741 mmHg 72%

    übermorgen, 20 September, Donnerstag

    Zeit Temperatur Niederschläge Wind Luftdruck Luftfeuchtigkeit
    00:00 +18°C° 0 mm 1 m/S 741 mmHg 73%
    01:00 +16°C° 0 mm 1 m/S 741 mmHg 74%
    02:00 +16°C° 0 mm 1 m/S 741 mmHg 75%
    03:00 +15°C° 0 mm 1 m/S 741 mmHg 76%
    04:00 +15°C° 0 mm 1 m/S 741 mmHg 77%
    05:00 +15°C° 0 mm 1 m/S 740 mmHg 78%
    06:00 +16°C° 0 mm 1 m/S 741 mmHg 75%
    07:00 +18°C° 0 mm 1 m/S 741 mmHg 72%
    08:00 +19°C° 0 mm 1 m/S 741 mmHg 69%
    09:00 +21°C° 0 mm 1 m/S 741 mmHg 64%
    10:00 +23°C° 0 mm 1 m/S 741 mmHg 58%
    11:00 +24°C° 0 mm 1 m/S 741 mmHg 53%
    12:00 +25°C° 0 mm 1 m/S 741 mmHg 50%
    13:00 +26°C° 0 mm 1 m/S 741 mmHg 47%
    14:00 +26°C° 0 mm 1 m/S 741 mmHg 44%
    15:00 +26°C° 0 mm 1 m/S 741 mmHg 47%
    16:00 +26°C° 0 mm 1 m/S 740 mmHg 50%
    17:00 +23°C° 0 mm 0 m/S 740 mmHg 54%
    18:00 +21°C° 0 mm 0 m/S 740 mmHg 56%
    19:00 +22°C° 0 mm 1 m/S 740 mmHg 59%
    20:00 +20°C° 0 mm 1 m/S 740 mmHg 62%
    21:00 +19°C° 0 mm 1 m/S 740 mmHg 63%
    22:00 +19°C° 0 mm 1 m/S 740 mmHg 64%
    23:00 +18°C° 0 mm 1 m/S 740 mmHg 65%

    21 September, Freitag

    Zeit Temperatur Niederschläge Wind Luftdruck Luftfeuchtigkeit
    00:00 +18°C° 0 mm 1 m/S 740 mmHg 65%
    01:00 +18°C° 0 mm 1 m/S 740 mmHg 66%
    02:00 +16°C° 0 mm 1 m/S 740 mmHg 66%
    03:00 +16°C° 0 mm 2 m/S 739 mmHg 66%
    04:00 +16°C° 0 mm 2 m/S 739 mmHg 66%
    05:00 +15°C° 0 mm 2 m/S 739 mmHg 66%
    06:00 +16°C° 0 mm 2 m/S 739 mmHg 64%
    07:00 +17°C° 0 mm 2 m/S 739 mmHg 63%
    08:00 +18°C° 0 mm 2 m/S 740 mmHg 62%
    09:00 +20°C° 0 mm 3 m/S 740 mmHg 57%
    10:00 +22°C° 0 mm 3 m/S 740 mmHg 51%
    11:00 +25°C° 0 mm 4 m/S 739 mmHg 46%
    12:00 +26°C° 0 mm 4 m/S 739 mmHg 44%
    13:00 +26°C° 0 mm 4 m/S 739 mmHg 42%
    14:00 +27°C° 0 mm 4 m/S 738 mmHg 40%
    15:00 +26°C° 0 mm 4 m/S 738 mmHg 45%
    16:00 +25°C° 0 mm 3 m/S 738 mmHg 49%
    17:00 +25°C° 0 mm 3 m/S 737 mmHg 53%
    18:00 +22°C° 0 mm 3 m/S 737 mmHg 56%
    19:00 +20°C° 0 mm 3 m/S 737 mmHg 58%
    20:00 +19°C° 0 mm 3 m/S 737 mmHg 60%
    21:00 +18°C° 0 mm 3 m/S 736 mmHg 60%
    22:00 +18°C° 0 mm 3 m/S 736 mmHg 60%
    23:00 +17°C° 0 mm 3 m/S 736 mmHg 60%

    22 September, Samstag

    Zeit Temperatur Niederschläge Wind Luftdruck Luftfeuchtigkeit
    00:00 +17°C° 0 mm 3 m/S 736 mmHg 59%
    01:00 +17°C° 0 mm 4 m/S 736 mmHg 58%
    02:00 +15°C° 0 mm 4 m/S 735 mmHg 58%
    03:00 +15°C° 0 mm 4 m/S 735 mmHg 58%
    04:00 +15°C° 0 mm 4 m/S 735 mmHg 59%
    05:00 +14°C° 0 mm 4 m/S 735 mmHg 59%
    06:00 +15°C° 0 mm 4 m/S 735 mmHg 60%
    07:00 +17°C° 0 mm 4 m/S 734 mmHg 60%
    08:00 +18°C° 0 mm 4 m/S 734 mmHg 61%
    09:00 +20°C° 0 mm 4 m/S 734 mmHg 57%
    10:00 +22°C° 0 mm 4 m/S 734 mmHg 54%
    11:00 +25°C° 0 mm 5 m/S 735 mmHg 50%
    12:00 +25°C° 0 mm 5 m/S 734 mmHg 50%
    13:00 +25°C° 0 mm 5 m/S 734 mmHg 50%
    14:00 +25°C° 0 mm 4 m/S 734 mmHg 50%
    15:00 +22°C° 0.1 mm 5 m/S 734 mmHg 57%
    16:00 +20°C° 0.1 mm 6 m/S 734 mmHg 63%
    17:00 +17°C° 0.1 mm 7 m/S 734 mmHg 70%
    18:00 +15°C° 0.6 mm 7 m/S 734 mmHg 75%
    19:00 +12°C° 0.6 mm 8 m/S 735 mmHg 80%
    20:00 +10°C° 0.6 mm 8 m/S 735 mmHg 85%
    21:00 +9°C° 2.2 mm 8 m/S 736 mmHg 86%
    22:00 +9°C° 2.2 mm 8 m/S 736 mmHg 88%
    23:00 +8°C° 2.2 mm 7 m/S 736 mmHg 90%

    23 September, Sonntag

    Zeit Temperatur Niederschläge Wind Luftdruck Luftfeuchtigkeit
    00:00 +8°C° 1.7 mm 7 m/S 736 mmHg 90%
    01:00 +8°C° 1.7 mm 7 m/S 737 mmHg 89%
    02:00 +8°C° 1.7 mm 6 m/S 737 mmHg 89%
    03:00 +8°C° 0.4 mm 6 m/S 737 mmHg 89%
    04:00 +8°C° 0.4 mm 6 m/S 737 mmHg 89%
    05:00 +8°C° 0.4 mm 6 m/S 737 mmHg 89%
    06:00 +8°C° 0.1 mm 6 m/S 738 mmHg 87%
    07:00 +8°C° 0.1 mm 6 m/S 738 mmHg 85%
    08:00 +8°C° 0.1 mm 6 m/S 738 mmHg 83%
    09:00 +10°C° 0 mm 6 m/S 738 mmHg 76%
    10:00 +11°C° 0 mm 7 m/S 738 mmHg 69%
    11:00 +12°C° 0 mm 7 m/S 738 mmHg 62%
    12:00 +14°C° 0.1 mm 7 m/S 738 mmHg 60%
    13:00 +14°C° 0.1 mm 7 m/S 738 mmHg 57%
    14:00 +15°C° 0.1 mm 7 m/S 738 mmHg 55%
    15:00 +14°C° 0 mm 6 m/S 738 mmHg 57%
    16:00 +14°C° 0 mm 5 m/S 737 mmHg 60%
    17:00 +14°C° 0 mm 4 m/S 737 mmHg 63%
    18:00 +12°C° 0 mm 3 m/S 737 mmHg 66%
    19:00 +11°C° 0 mm 3 m/S 737 mmHg 70%
    20:00 +10°C° 0 mm 3 m/S 737 mmHg 73%
    21:00 +9°C° 0 mm 3 m/S 737 mmHg 75%
    22:00 +9°C° 0 mm 2 m/S 736 mmHg 77%
    23:00 +8°C° 0 mm 2 m/S 736 mmHg 78%
    Mehr zeigen